Location: Coopersdale
(40.3556°N, 78.9372°W)
Time: 05:26:02
(UTC+00:00)

Transit 2A Rocket - All Passes

Search period start: 28 January 2021 00:00
Search period end: 07 February 2021 00:00
Orbit: 592 x 910 km, 66.7° (Epoch: 27 January)

Date Brightness Start Highest point End Pass type
(mag) Time Alt. Az. Time Alt. Az. Time Alt. Az.
28 Jan - 00:14:35 10° N 00:17:30 17° NE 00:20:21 10° E visible
28 Jan - 01:56:08 10° NW 02:00:21 51° WSW 02:04:31 10° S visible
28 Jan - 14:49:13 10° SE 14:52:24 16° ESE 14:55:27 10° ENE daylight
28 Jan - 16:29:05 10° SW 16:34:33 68° WNW 16:39:32 10° NNE daylight
28 Jan - 18:16:11 10° WNW 18:17:54 12° NW 18:19:36 10° NNW daylight
28 Jan - 23:33:48 10° NNE 23:34:30 10° NE 23:35:10 10° NE visible
29 Jan - 01:13:27 10° NNW 01:17:48 80° ENE 01:22:07 10° SSE visible
29 Jan - 15:46:28 10° SSW 15:51:57 70° ESE 15:56:58 10° NE daylight
29 Jan - 17:31:19 10° W 17:34:55 18° NW 17:38:20 10° N daylight
30 Jan - 00:31:01 10° NNW 00:35:10 41° NE 00:39:14 10° SE visible
30 Jan - 02:14:29 10° WNW 02:17:19 17° WSW 02:20:08 10° SSW visible
30 Jan - 15:04:20 10° S 15:09:26 39° ESE 15:14:09 10° NE daylight
30 Jan - 16:47:25 10° WSW 16:52:03 29° NW 16:56:21 10° N daylight
30 Jan - 23:48:50 10° N 23:52:23 24° NE 23:55:52 10° ESE visible
31 Jan - 01:31:04 10° NW 01:34:57 33° WSW 01:38:49 10° S visible
31 Jan - 14:22:48 10° SSE 14:26:59 23° ESE 14:30:56 10° ENE daylight
31 Jan - 16:04:05 10° SW 16:09:19 48° WNW 16:14:07 10° NNE daylight
31 Jan - 23:07:06 10° N 23:09:28 14° NE 23:11:50 10° ENE visible
01 Feb - 00:48:11 10° NW 00:52:29 66° WSW 00:56:45 10° SSE visible
01 Feb - 13:42:28 10° SE 13:44:38 12° ESE 13:46:46 10° E daylight
01 Feb - 15:21:12 10° SSW 15:26:40 82° WNW 15:31:40 10° NNE daylight
01 Feb - 17:07:23 10° WNW 17:09:53 13° NW 17:12:17 10° NNW daylight
02 Feb - 00:05:36 10° NNW 00:09:54 63° ENE 00:14:10 10° SE visible
02 Feb - 01:50:39 10° W 01:51:49 11° WSW 01:52:59 10° WSW visible
02 Feb - 14:38:45 10° SSW 14:44:06 57° ESE 14:49:00 10° NE daylight
02 Feb - 16:22:58 10° W 16:26:56 21° NW 16:30:40 10° N daylight
02 Feb - 23:23:15 10° NNW 23:27:13 33° NE 23:31:08 10° ESE visible
03 Feb - 01:06:12 10° WNW 01:09:31 22° WSW 01:12:49 10° SSW visible
03 Feb - 13:56:48 10° S 14:01:37 32° ESE 14:06:04 10° NE daylight
03 Feb - 15:39:17 10° WSW 15:44:07 34° NW 15:48:36 10° NNE daylight
03 Feb - 22:41:11 10° N 22:44:24 20° NE 22:47:34 10° E daylight
04 Feb - 00:23:02 10° NW 00:27:06 42° WSW 00:31:10 10° S visible
04 Feb - 13:15:34 10° SSE 13:19:11 18° ESE 13:22:39 10° ENE daylight
04 Feb - 14:56:06 10° SW 15:01:25 58° WNW 15:06:16 10° NNE daylight
04 Feb - 21:59:46 10° NNE 22:01:26 12° NE 22:03:05 10° ENE daylight
04 Feb - 23:40:16 10° NNW 23:44:36 84° WSW 23:48:55 10° SSE visible
05 Feb - 14:13:22 10° SSW 14:18:48 82° ESE 14:23:45 10° NNE daylight
05 Feb - 15:58:48 10° W 16:01:52 16° NW 16:04:47 10° N daylight
05 Feb - 22:57:46 10° NNW 23:01:59 50° ENE 23:06:10 10° SE visible
06 Feb - 00:41:45 10° WNW 00:44:02 14° WSW 00:46:19 10° SW visible
06 Feb - 13:31:05 10° S 13:36:15 46° ESE 13:41:01 10° NE daylight
06 Feb - 15:14:41 10° WSW 15:18:58 25° NW 15:22:58 10° N daylight
06 Feb - 22:15:31 10° N 22:19:16 27° NE 22:22:57 10° ESE daylight
